owner,sensor,date,latitude,longitude,air_pressure(mBar),qcFlag 
TABS,ioos:station:wmo:42045:1,2003-04-01T00:10:00Z,26.2168,-96.4998,1026.36,11111222 
TABS,ioos:station:wmo:42045:1,2003-04-01T00:40:00Z,26.2168,-96.4998,1026.42,11111222 
TABS,ioos:station:wmo:42045:1,2003-04-01T01:10:00Z,26.2168,-96.4998,1026.67,11111222 
TABS,ioos:station:wmo:42045:1,2003-04-01T01:40:00Z,26.2168,-96.4998,1026.93,11111222 
TABS,ioos:station:wmo:42045:1,2003-04-01T02:10:00Z,26.2168,-96.4998,1027.06,11111222 
TABS,ioos:station:wmo:42045:1,2003-04-01T02:40:00Z,26.2168,-96.4998,1027.37,11111222 
TABS,ioos:station:wmo:42045:1,2003-04-01T03:10:00Z,26.2168,-96.4998,1027.75,11111222 
TABS,ioos:station:wmo:42045:1,2003-04-01T03:40:00Z,26.2168,-96.4998,1027.56,11111222 
TABS,ioos:station:wmo:42045:1,2003-04-01T04:10:00Z,26.2168,-96.4998,1027.56,11111222 
TABS,ioos:station:wmo:42045:1,2003-04-01T04:40:00Z,26.2168,-96.4998,1027.44,11111222 
TABS,ioos:station:wmo:42045:1,2003-04-01T05:10:00Z,26.2168,-96.4998,1027.06,11111222 
TABS,ioos:station:wmo:42045:1,2003-04-01T05:40:00Z,26.2168,-96.4998,1026.93,11111222 
TABS,ioos:station:wmo:42045:1,2003-04-01T06:10:00Z,26.2168,-96.4998,1026.61,11111222 
TABS,ioos:station:wmo:42045:1,2003-04-01T06:40:00Z,26.2168,-96.4998,1026.1,11111222 
TABS,ioos:station:wmo:42045:1,2003-04-01T07:10:00Z,26.2168,-96.4998,1026.1,11111222 
TABS,ioos:station:wmo:42045:1,2003-04-01T07:40:00Z,26.2168,-96.4998,1025.72,11111222 
TABS,ioos:station:wmo:42045:1,2003-04-01T08:10:00Z,26.2168,-96.4998,1025.21,11111222 
TABS,ioos:station:wmo:42045:1,2003-04-01T08:40:00Z,26.2168,-96.4998,1024.9,11111222 
TABS,ioos:station:wmo:42045:1,2003-04-01T09:10:00Z,26.2168,-96.4998,1024.71,11111222 
TABS,ioos:station:wmo:42045:1,2003-04-01T09:40:00Z,26.2168,-96.4998,1024.39,11111222 
TABS,ioos:station:wmo:42045:1,2003-04-01T10:10:00Z,26.2168,-96.4998,1024.2,11111222 
TABS,ioos:station:wmo:42045:1,2003-04-01T10:40:00Z,26.2168,-96.4998,1024.14,11111222 
TABS,ioos:station:wmo:42045:1,2003-04-01T11:10:00Z,26.2168,-96.4998,1024.14,11111222 
TABS,ioos:station:wmo:42045:1,2003-04-01T11:40:00Z,26.2168,-96.4998,1024.33,11111222 
TABS,ioos:station:wmo:42045:1,2003-04-01T12:10:00Z,26.2168,-96.4998,1024.39,11111222 
TABS,ioos:station:wmo:42045:1,2003-04-01T12:40:00Z,26.2168,-96.4998,1024.45,11111222 
TABS,ioos:station:wmo:42045:1,2003-04-01T13:10:00Z,26.2168,-96.4998,1024.45,11111222 
TABS,ioos:station:wmo:42045:1,2003-04-01T13:40:00Z,26.2168,-96.4998,1024.71,11111222 
TABS,ioos:station:wmo:42045:1,2003-04-01T14:10:00Z,26.2168,-96.4998,1024.77,11111222 
TABS,ioos:station:wmo:42045:1,2003-04-01T14:40:00Z,26.2168,-96.4998,1025.09,11111222 
TABS,ioos:station:wmo:42045:1,2003-04-01T15:10:00Z,26.2168,-96.4998,1025.47,11111222 
TABS,ioos:station:wmo:42045:1,2003-04-01T16:10:00Z,26.2168,-96.4998,1025.47,11111222 
TABS,ioos:station:wmo:42045:1,2003-04-01T16:40:00Z,26.2168,-96.4998,1025.34,11111222 
TABS,ioos:station:wmo:42045:1,2003-04-01T17:10:00Z,26.2168,-96.4998,1025.09,11111222 
TABS,ioos:station:wmo:42045:1,2003-04-01T17:40:00Z,26.2168,-96.4998,1024.77,11111222 
TABS,ioos:station:wmo:42045:1,2003-04-01T18:10:00Z,26.2168,-96.4998,1024.45,11111222 
TABS,ioos:station:wmo:42045:1,2003-04-01T19:10:00Z,26.2168,-96.4998,1023.5,11111222 
TABS,ioos:station:wmo:42045:1,2003-04-01T19:40:00Z,26.2168,-96.4998,1023.06,11111222 
TABS,ioos:station:wmo:42045:1,2003-04-01T20:10:00Z,26.2168,-96.4998,1022.61,11111222 
TABS,ioos:station:wmo:42045:1,2003-04-01T20:40:00Z,26.2168,-96.4998,1022.36,11111222 
TABS,ioos:station:wmo:42045:1,2003-04-01T21:10:00Z,26.2168,-96.4998,1022.04,11111222 
TABS,ioos:station:wmo:42045:1,2003-04-01T21:40:00Z,26.2168,-96.4998,1021.72,11111222 
TABS,ioos:station:wmo:42045:1,2003-04-01T22:10:00Z,26.2168,-96.4998,1021.47,11111222 
TABS,ioos:station:wmo:42045:1,2003-04-01T22:40:00Z,26.2168,-96.4998,1021.22,11111222 
TABS,ioos:station:wmo:42045:1,2003-04-01T23:10:00Z,26.2168,-96.4998,1020.58,11111222 
TABS,ioos:station:wmo:42045:1,2003-04-01T23:40:00Z,26.2168,-96.4998,1020.71,11111222 
TABS,ioos:station:wmo:42045:1,2003-04-02T00:10:00Z,26.2168,-96.4998,1020.77,11111222 
TABS,ioos:station:wmo:42045:1,2003-04-02T00:40:00Z,26.2168,-96.4998,1020.52,11111222 
TABS,ioos:station:wmo:42045:1,2003-04-02T01:10:00Z,26.2168,-96.4998,1020.71,11111222 
TABS,ioos:station:wmo:42045:1,2003-04-02T01:40:00Z,26.2168,-96.4998,1020.71,11111222 
TABS,ioos:station:wmo:42045:1,2003-04-02T02:10:00Z,26.2168,-96.4998,1020.9,11111222 
TABS,ioos:station:wmo:42045:1,2003-04-02T02:40:00Z,26.2168,-96.4998,1020.9,11111222 
TABS,ioos:station:wmo:42045:1,2003-04-02T03:10:00Z,26.2168,-96.4998,1021.28,11111222 
TABS,ioos:station:wmo:42045:1,2003-04-02T03:40:00Z,26.2168,-96.4998,1021.47,11111222 
TABS,ioos:station:wmo:42045:1,2003-04-02T04:10:00Z,26.2168,-96.4998,1021.6,11111222 
TABS,ioos:station:wmo:42045:1,2003-04-02T04:40:00Z,26.2168,-96.4998,1021.79,11111222 
TABS,ioos:station:wmo:42045:1,2003-04-02T05:10:00Z,26.2168,-96.4998,1021.66,11111222 
TABS,ioos:station:wmo:42045:1,2003-04-02T05:40:00Z,26.2168,-96.4998,1021.22,11111222 
TABS,ioos:station:wmo:42045:1,2003-04-02T06:10:00Z,26.2168,-96.4998,1021.15,11111222 
TABS,ioos:station:wmo:42045:1,2003-04-02T06:40:00Z,26.2168,-96.4998,1020.77,11111222 
TABS,ioos:station:wmo:42045:1,2003-04-02T07:10:00Z,26.2168,-96.4998,1020.64,11111222 
TABS,ioos:station:wmo:42045:1,2003-04-02T07:40:00Z,26.2168,-96.4998,1020.45,11111222 
TABS,ioos:station:wmo:42045:1,2003-04-02T08:10:00Z,26.2168,-96.4998,1020.26,11111222 
TABS,ioos:station:wmo:42045:1,2003-04-02T08:40:00Z,26.2168,-96.4998,1020.07,11111222 
TABS,ioos:station:wmo:42045:1,2003-04-02T09:10:00Z,26.2168,-96.4998,1020.07,11111222 
TABS,ioos:station:wmo:42045:1,2003-04-02T09:40:00Z,26.2168,-96.4998,1019.82,11111222 
TABS,ioos:station:wmo:42045:1,2003-04-02T10:10:00Z,26.2168,-96.4998,1019.5,11111222 
TABS,ioos:station:wmo:42045:1,2003-04-02T10:40:00Z,26.2168,-96.4998,1019.44,11111222 
TABS,ioos:station:wmo:42045:1,2003-04-02T11:10:00Z,26.2168,-96.4998,1019.76,11111222 
TABS,ioos:station:wmo:42045:1,2003-04-02T11:40:00Z,26.2168,-96.4998,1019.88,11111222 
TABS,ioos:station:wmo:42045:1,2003-04-02T12:10:00Z,26.2168,-96.4998,1019.82,11111222 
TABS,ioos:station:wmo:42045:1,2003-04-02T12:40:00Z,26.2168,-96.4998,1022.61,11111222 
TABS,ioos:station:wmo:42045:1,2003-04-02T13:10:00Z,26.2168,-96.4998,1030.04,11111222 
TABS,ioos:station:wmo:42045:1,2003-04-02T13:40:00Z,26.2168,-96.4998,1037.47,11111222 
TABS,ioos:station:wmo:42045:1,2003-04-02T14:10:00Z,26.2168,-96.4998,1038.23,11111222 
TABS,ioos:station:wmo:42045:1,2003-04-02T14:40:00Z,26.2168,-96.4998,1035.69,11111222 
TABS,ioos:station:wmo:42045:1,2003-04-02T15:10:00Z,26.2168,-96.4998,1034.42,11111222 
TABS,ioos:station:wmo:42045:1,2003-04-02T16:10:00Z,26.2168,-96.4998,1029.15,11111222 
TABS,ioos:station:wmo:42045:1,2003-04-02T16:40:00Z,26.2168,-96.4998,1027.44,11111222 
TABS,ioos:station:wmo:42045:1,2003-04-02T17:10:00Z,26.2168,-96.4998,1026.87,11111222 
TABS,ioos:station:wmo:42045:1,2003-04-02T17:40:00Z,26.2168,-96.4998,1026.17,11111222 
TABS,ioos:station:wmo:42045:1,2003-04-02T18:10:00Z,26.2168,-96.4998,1027.06,11111222 
TABS,ioos:station:wmo:42045:1,2003-04-02T19:10:00Z,26.2168,-96.4998,1028.2,11111222 
TABS,ioos:station:wmo:42045:1,2003-04-02T19:40:00Z,26.2168,-96.4998,1026.1,11111222 
TABS,ioos:station:wmo:42045:1,2003-04-02T20:10:00Z,26.2168,-96.4998,1031.25,11111222 
TABS,ioos:station:wmo:42045:1,2003-04-02T20:40:00Z,26.2168,-96.4998,1026.36,11111222 
TABS,ioos:station:wmo:42045:1,2003-04-02T21:10:00Z,26.2168,-96.4998,1027.82,11111222 
TABS,ioos:station:wmo:42045:1,2003-04-02T21:40:00Z,26.2168,-96.4998,1029.79,11111222 
TABS,ioos:station:wmo:42045:1,2003-04-02T22:10:00Z,26.2168,-96.4998,1021.79,11111222 
TABS,ioos:station:wmo:42045:1,2003-04-02T22:40:00Z,26.2168,-96.4998,1018.36,11111222 
TABS,ioos:station:wmo:42045:1,2003-04-02T23:10:00Z,26.2168,-96.4998,1011.0,11111222 
TABS,ioos:station:wmo:42045:1,2003-04-02T23:40:00Z,26.2168,-96.4998,1006.81,11111222 
TABS,ioos:station:wmo:42045:1,2003-04-03T00:10:00Z,26.2168,-96.4998,1005.35,11111222 
TABS,ioos:station:wmo:42045:1,2003-04-03T00:40:00Z,26.2168,-96.4998,1004.97,11111222 
TABS,ioos:station:wmo:42045:1,2003-04-03T01:10:00Z,26.2168,-96.4998,1005.6,11111222 
TABS,ioos:station:wmo:42045:1,2003-04-03T01:40:00Z,26.2168,-96.4998,1006.68,11111222 
TABS,ioos:station:wmo:42045:1,2003-04-03T02:10:00Z,26.2168,-96.4998,1007.76,11111222 
TABS,ioos:station:wmo:42045:1,2003-04-03T02:40:00Z,26.2168,-96.4998,1008.71,11111222 
TABS,ioos:station:wmo:42045:1,2003-04-03T03:10:00Z,26.2168,-96.4998,1009.6,11111222 
TABS,ioos:station:wmo:42045:1,2003-04-03T03:40:00Z,26.2168,-96.4998,1010.23,11111222 
TABS,ioos:station:wmo:42045:1,2003-04-03T04:10:00Z,26.2168,-96.4998,1010.68,11111222 
TABS,ioos:station:wmo:42045:1,2003-04-03T04:40:00Z,26.2168,-96.4998,1011.12,11111222 
TABS,ioos:station:wmo:42045:1,2003-04-03T05:10:00Z,26.2168,-96.4998,1011.57,11111222 
TABS,ioos:station:wmo:42045:1,2003-04-03T05:40:00Z,26.2168,-96.4998,1011.82,11111222 
TABS,ioos:station:wmo:42045:1,2003-04-03T06:10:00Z,26.2168,-96.4998,1012.71,11111222 
TABS,ioos:station:wmo:42045:1,2003-04-03T06:40:00Z,26.2168,-96.4998,1013.41,11111222 
TABS,ioos:station:wmo:42045:1,2003-04-03T07:10:00Z,26.2168,-96.4998,1014.17,11111222 
TABS,ioos:station:wmo:42045:1,2003-04-03T07:40:00Z,26.2168,-96.4998,1014.04,11111222 
TABS,ioos:station:wmo:42045:1,2003-04-03T08:10:00Z,26.2168,-96.4998,1014.04,11111222 
TABS,ioos:station:wmo:42045:1,2003-04-03T08:40:00Z,26.2168,-96.4998,1013.66,11111222 
TABS,ioos:station:wmo:42045:1,2003-04-03T09:10:00Z,26.2168,-96.4998,1013.22,11111222 
TABS,ioos:station:wmo:42045:1,2003-04-03T09:40:00Z,26.2168,-96.4998,1013.09,11111222 
TABS,ioos:station:wmo:42045:1,2003-04-03T10:10:00Z,26.2168,-96.4998,1013.09,11111222 
TABS,ioos:station:wmo:42045:1,2003-04-03T10:40:00Z,26.2168,-96.4998,1012.33,11111222 
TABS,ioos:station:wmo:42045:1,2003-04-03T11:10:00Z,26.2168,-96.4998,1012.2,11111222 
TABS,ioos:station:wmo:42045:1,2003-04-03T11:40:00Z,26.2168,-96.4998,1012.46,11111222 
TABS,ioos:station:wmo:42045:1,2003-04-03T12:10:00Z,26.2168,-96.4998,1012.96,11111222 
TABS,ioos:station:wmo:42045:1,2003-04-03T12:40:00Z,26.2168,-96.4998,1014.23,11111222 
TABS,ioos:station:wmo:42045:1,2003-04-03T13:10:00Z,26.2168,-96.4998,1015.69,11111222 
TABS,ioos:station:wmo:42045:1,2003-04-03T13:40:00Z,26.2168,-96.4998,1017.66,11111222 
TABS,ioos:station:wmo:42045:1,2003-04-03T14:10:00Z,26.2168,-96.4998,1021.85,11111222 
TABS,ioos:station:wmo:42045:1,2003-04-03T14:40:00Z,26.2168,-96.4998,1029.72,11111222 
TABS,ioos:station:wmo:42045:1,2003-04-03T15:10:00Z,26.2168,-96.4998,1031.94,11111222 
TABS,ioos:station:wmo:42045:1,2003-04-03T16:10:00Z,26.2168,-96.4998,1029.09,11111222 
TABS,ioos:station:wmo:42045:1,2003-04-03T16:40:00Z,26.2168,-96.4998,1024.58,11111222 
TABS,ioos:station:wmo:42045:1,2003-04-03T17:10:00Z,26.2168,-96.4998,1022.99,11111222 
TABS,ioos:station:wmo:42045:1,2003-04-03T17:40:00Z,26.2168,-96.4998,1020.33,11111222 
TABS,ioos:station:wmo:42045:1,2003-04-03T18:10:00Z,26.2168,-96.4998,1019.69,11111222 
TABS,ioos:station:wmo:42045:1,2003-04-03T19:10:00Z,26.2168,-96.4998,1022.8,11111222 
TABS,ioos:station:wmo:42045:1,2003-04-03T19:40:00Z,26.2168,-96.4998,1026.36,11111222 
TABS,ioos:station:wmo:42045:1,2003-04-03T20:10:00Z,26.2168,-96.4998,1029.85,11111222 
TABS,ioos:station:wmo:42045:1,2003-04-03T20:40:00Z,26.2168,-96.4998,1030.67,11111222 
TABS,ioos:station:wmo:42045:1,2003-04-03T21:10:00Z,26.2168,-96.4998,1032.45,11111222 
TABS,ioos:station:wmo:42045:1,2003-04-03T21:40:00Z,26.2168,-96.4998,1032.07,11111222 
TABS,ioos:station:wmo:42045:1,2003-04-03T22:10:00Z,26.2168,-96.4998,1030.55,11111222 
TABS,ioos:station:wmo:42045:1,2003-04-03T22:40:00Z,26.2168,-96.4998,1026.04,11111222 
TABS,ioos:station:wmo:42045:1,2003-04-03T23:10:00Z,26.2168,-96.4998,1017.85,11111222 
TABS,ioos:station:wmo:42045:1,2003-04-03T23:40:00Z,26.2168,-96.4998,1014.68,11111222 
TABS,ioos:station:wmo:42045:1,2003-04-04T00:10:00Z,26.2168,-96.4998,1007.25,11111222 
TABS,ioos:station:wmo:42045:1,2003-04-04T00:40:00Z,26.2168,-96.4998,999.82,11111222 
TABS,ioos:station:wmo:42045:1,2003-04-04T01:10:00Z,26.2168,-96.4998,997.35,11111222 
TABS,ioos:station:wmo:42045:1,2003-04-04T01:40:00Z,26.2168,-96.4998,997.09,11111222 
TABS,ioos:station:wmo:42045:1,2003-04-04T02:10:00Z,26.2168,-96.4998,997.92,11111222 
TABS,ioos:station:wmo:42045:1,2003-04-04T02:40:00Z,26.2168,-96.4998,999.25,11111222 
TABS,ioos:station:wmo:42045:1,2003-04-04T03:10:00Z,26.2168,-96.4998,1000.33,11111222 
TABS,ioos:station:wmo:42045:1,2003-04-04T03:40:00Z,26.2168,-96.4998,1001.47,11111222 
TABS,ioos:station:wmo:42045:1,2003-04-04T04:10:00Z,26.2168,-96.4998,1002.17,11111222 
TABS,ioos:station:wmo:42045:1,2003-04-04T04:40:00Z,26.2168,-96.4998,1002.43,11111222 
TABS,ioos:station:wmo:42045:1,2003-04-04T05:10:00Z,26.2168,-96.4998,1003.19,11111222 
TABS,ioos:station:wmo:42045:1,2003-04-04T05:40:00Z,26.2168,-96.4998,1004.01,11111222 
TABS,ioos:station:wmo:42045:1,2003-04-04T06:10:00Z,26.2168,-96.4998,1004.71,11111222 
TABS,ioos:station:wmo:42045:1,2003-04-04T06:40:00Z,26.2168,-96.4998,1005.09,11111222 
TABS,ioos:station:wmo:42045:1,2003-04-04T07:10:00Z,26.2168,-96.4998,1005.47,11111222 
TABS,ioos:station:wmo:42045:1,2003-04-04T07:40:00Z,26.2168,-96.4998,1005.54,11111222 
TABS,ioos:station:wmo:42045:1,2003-04-04T08:10:00Z,26.2168,-96.4998,1005.85,11111222 
TABS,ioos:station:wmo:42045:1,2003-04-04T08:40:00Z,26.2168,-96.4998,1007.12,11111222 
TABS,ioos:station:wmo:42045:1,2003-04-04T09:10:00Z,26.2168,-96.4998,1007.5,11111222 
TABS,ioos:station:wmo:42045:1,2003-04-04T09:40:00Z,26.2168,-96.4998,1007.5,11111222 
TABS,ioos:station:wmo:42045:1,2003-04-04T10:10:00Z,26.2168,-96.4998,1007.19,11111222 
TABS,ioos:station:wmo:42045:1,2003-04-04T10:40:00Z,26.2168,-96.4998,1006.87,11111222 
TABS,ioos:station:wmo:42045:1,2003-04-04T11:10:00Z,26.2168,-96.4998,1007.19,11111222 
TABS,ioos:station:wmo:42045:1,2003-04-04T11:40:00Z,26.2168,-96.4998,1007.44,11111222 
TABS,ioos:station:wmo:42045:1,2003-04-04T12:10:00Z,26.2168,-96.4998,1007.76,11111222 
TABS,ioos:station:wmo:42045:1,2003-04-04T12:40:00Z,26.2168,-96.4998,1008.46,11111222 
TABS,ioos:station:wmo:42045:1,2003-04-04T13:10:00Z,26.2168,-96.4998,1010.17,11111222 
TABS,ioos:station:wmo:42045:1,2003-04-04T13:40:00Z,26.2168,-96.4998,1020.96,11111222 
TABS,ioos:station:wmo:42045:1,2003-04-04T14:10:00Z,26.2168,-96.4998,1028.33,11111222 
TABS,ioos:station:wmo:42045:1,2003-04-04T14:40:00Z,26.2168,-96.4998,1028.58,11111222 
TABS,ioos:station:wmo:42045:1,2003-04-04T15:10:00Z,26.2168,-96.4998,1025.6,11111222 
TABS,ioos:station:wmo:42045:1,2003-04-04T16:10:00Z,26.2168,-96.4998,1025.21,11111222 
TABS,ioos:station:wmo:42045:1,2003-04-04T16:40:00Z,26.2168,-96.4998,1026.42,11111222 
TABS,ioos:station:wmo:42045:1,2003-04-04T17:10:00Z,26.2168,-96.4998,1031.05,11111222 
TABS,ioos:station:wmo:42045:1,2003-04-04T17:40:00Z,26.2168,-96.4998,1022.93,11111222 
TABS,ioos:station:wmo:42045:1,2003-04-04T18:10:00Z,26.2168,-96.4998,1016.77,11111222 
TABS,ioos:station:wmo:42045:1,2003-04-04T19:10:00Z,26.2168,-96.4998,1017.34,11111222 
TABS,ioos:station:wmo:42045:1,2003-04-04T19:40:00Z,26.2168,-96.4998,1021.15,11111222 
TABS,ioos:station:wmo:42045:1,2003-04-04T20:10:00Z,26.2168,-96.4998,1022.1,11111222 
TABS,ioos:station:wmo:42045:1,2003-04-04T20:40:00Z,26.2168,-96.4998,1014.17,11111222 
TABS,ioos:station:wmo:42045:1,2003-04-04T21:10:00Z,26.2168,-96.4998,1002.93,11111222 
TABS,ioos:station:wmo:42045:1,2003-04-04T21:40:00Z,26.2168,-96.4998,1007.19,11111222 
TABS,ioos:station:wmo:42045:1,2003-04-04T22:10:00Z,26.2168,-96.4998,1003.12,11111222 
TABS,ioos:station:wmo:42045:1,2003-04-04T22:40:00Z,26.2168,-96.4998,1004.52,11111222 
TABS,ioos:station:wmo:42045:1,2003-04-04T23:10:00Z,26.2168,-96.4998,1001.6,11111222 
TABS,ioos:station:wmo:42045:1,2003-04-04T23:40:00Z,26.2168,-96.4998,999.06,11111222 
TABS,ioos:station:wmo:42045:1,2003-04-05T00:10:00Z,26.2168,-96.4998,999.06,11111222 
TABS,ioos:station:wmo:42045:1,2003-04-05T00:40:00Z,26.2168,-96.4998,996.33,11111222 
TABS,ioos:station:wmo:42045:1,2003-04-05T01:10:00Z,26.2168,-96.4998,995.7,11111222 
TABS,ioos:station:wmo:42045:1,2003-04-05T01:40:00Z,26.2168,-96.4998,996.4,11111222 
TABS,ioos:station:wmo:42045:1,2003-04-05T02:10:00Z,26.2168,-96.4998,997.03,11111222 
TABS,ioos:station:wmo:42045:1,2003-04-05T02:40:00Z,26.2168,-96.4998,997.98,11111222 
TABS,ioos:station:wmo:42045:1,2003-04-05T03:10:00Z,26.2168,-96.4998,998.75,11111222 
TABS,ioos:station:wmo:42045:1,2003-04-05T03:40:00Z,26.2168,-96.4998,999.82,11111222 
TABS,ioos:station:wmo:42045:1,2003-04-05T04:10:00Z,26.2168,-96.4998,1000.65,11111222 
TABS,ioos:station:wmo:42045:1,2003-04-05T04:40:00Z,26.2168,-96.4998,1001.67,11111222 
TABS,ioos:station:wmo:42045:1,2003-04-05T05:10:00Z,26.2168,-96.4998,1003.06,11111222 
TABS,ioos:station:wmo:42045:1,2003-04-05T05:40:00Z,26.2168,-96.4998,1003.7,11111222 
TABS,ioos:station:wmo:42045:1,2003-04-05T06:10:00Z,26.2168,-96.4998,1004.65,11111222 
TABS,ioos:station:wmo:42045:1,2003-04-05T06:40:00Z,26.2168,-96.4998,1004.84,11111222 
TABS,ioos:station:wmo:42045:1,2003-04-05T07:10:00Z,26.2168,-96.4998,1005.35,11111222 
TABS,ioos:station:wmo:42045:1,2003-04-05T07:40:00Z,26.2168,-96.4998,1005.79,11111222 
TABS,ioos:station:wmo:42045:1,2003-04-05T08:10:00Z,26.2168,-96.4998,1006.93,11111222 
TABS,ioos:station:wmo:42045:1,2003-04-05T08:40:00Z,26.2168,-96.4998,1007.0,11111222 
TABS,ioos:station:wmo:42045:1,2003-04-05T09:10:00Z,26.2168,-96.4998,1007.31,11111222 
TABS,ioos:station:wmo:42045:1,2003-04-05T09:40:00Z,26.2168,-96.4998,1007.25,11111222 
TABS,ioos:station:wmo:42045:1,2003-04-05T10:10:00Z,26.2168,-96.4998,1007.89,11111222 
TABS,ioos:station:wmo:42045:1,2003-04-05T10:40:00Z,26.2168,-96.4998,1007.63,11111222 
TABS,ioos:station:wmo:42045:1,2003-04-05T11:10:00Z,26.2168,-96.4998,1007.57,11111222 
TABS,ioos:station:wmo:42045:1,2003-04-05T11:40:00Z,26.2168,-96.4998,1007.63,11111222 
TABS,ioos:station:wmo:42045:1,2003-04-05T12:10:00Z,26.2168,-96.4998,1007.95,11111222 
TABS,ioos:station:wmo:42045:1,2003-04-05T12:40:00Z,26.2168,-96.4998,1007.89,11111222 
TABS,ioos:station:wmo:42045:1,2003-04-05T13:10:00Z,26.2168,-96.4998,1008.52,11111222 
TABS,ioos:station:wmo:42045:1,2003-04-05T13:40:00Z,26.2168,-96.4998,1009.47,11111222 
TABS,ioos:station:wmo:42045:1,2003-04-05T14:10:00Z,26.2168,-96.4998,1011.38,11111222 
TABS,ioos:station:wmo:42045:1,2003-04-05T14:40:00Z,26.2168,-96.4998,1014.49,11111222 
TABS,ioos:station:wmo:42045:1,2003-04-05T15:10:00Z,26.2168,-96.4998,1023.88,11111222 
TABS,ioos:station:wmo:42045:1,2003-04-05T15:40:00Z,26.2168,-96.4998,1023.95,11111222 
TABS,ioos:station:wmo:42045:1,2003-04-05T16:10:00Z,26.2168,-96.4998,1023.69,11111222 
TABS,ioos:station:wmo:42045:1,2003-04-05T16:40:00Z,26.2168,-96.4998,1019.82,11111222 
TABS,ioos:station:wmo:42045:1,2003-04-05T17:10:00Z,26.2168,-96.4998,1016.71,11111222 
TABS,ioos:station:wmo:42045:1,2003-04-05T17:40:00Z,26.2168,-96.4998,1015.76,11111222 
TABS,ioos:station:wmo:42045:1,2003-04-05T18:10:00Z,26.2168,-96.4998,1016.2,11111222 
TABS,ioos:station:wmo:42045:1,2003-04-05T18:40:00Z,26.2168,-96.4998,1020.9,11111222 
TABS,ioos:station:wmo:42045:1,2003-04-05T19:10:00Z,26.2168,-96.4998,1023.31,11111222 
TABS,ioos:station:wmo:42045:1,2003-04-05T19:40:00Z,26.2168,-96.4998,1014.3,11111222 
TABS,ioos:station:wmo:42045:1,2003-04-05T20:10:00Z,26.2168,-96.4998,1011.76,11111222 
TABS,ioos:station:wmo:42045:1,2003-04-05T20:40:00Z,26.2168,-96.4998,1009.6,11111222 
TABS,ioos:station:wmo:42045:1,2003-04-05T21:10:00Z,26.2168,-96.4998,1010.68,11111222 
TABS,ioos:station:wmo:42045:1,2003-04-05T21:40:00Z,26.2168,-96.4998,1010.3,11111222 
TABS,ioos:station:wmo:42045:1,2003-04-05T22:10:00Z,26.2168,-96.4998,1009.92,11111222 
TABS,ioos:station:wmo:42045:1,2003-04-05T22:40:00Z,26.2168,-96.4998,1005.79,11111222 
TABS,ioos:station:wmo:42045:1,2003-04-05T23:10:00Z,26.2168,-96.4998,1003.76,11111222 
TABS,ioos:station:wmo:42045:1,2003-04-05T23:40:00Z,26.2168,-96.4998,1002.36,11111222 
TABS,ioos:station:wmo:42045:1,2003-04-06T00:10:00Z,26.2168,-96.4998,1001.35,11111222 
TABS,ioos:station:wmo:42045:1,2003-04-06T00:40:00Z,26.2168,-96.4998,1001.47,11111222 
TABS,ioos:station:wmo:42045:1,2003-04-06T01:10:00Z,26.2168,-96.4998,1001.86,11111222 
TABS,ioos:station:wmo:42045:1,2003-04-06T01:40:00Z,26.2168,-96.4998,1002.49,11111222 
TABS,ioos:station:wmo:42045:1,2003-04-06T02:10:00Z,26.2168,-96.4998,1003.06,11111222 
TABS,ioos:station:wmo:42045:1,2003-04-06T02:40:00Z,26.2168,-96.4998,1003.19,11111222 
TABS,ioos:station:wmo:42045:1,2003-04-06T03:10:00Z,26.2168,-96.4998,1004.01,11111222 
TABS,ioos:station:wmo:42045:1,2003-04-06T03:40:00Z,26.2168,-96.4998,1004.78,11111222 
TABS,ioos:station:wmo:42045:1,2003-04-06T04:10:00Z,26.2168,-96.4998,1005.09,11111222 
TABS,ioos:station:wmo:42045:1,2003-04-06T04:40:00Z,26.2168,-96.4998,1005.66,11111222 
TABS,ioos:station:wmo:42045:1,2003-04-06T05:10:00Z,26.2168,-96.4998,1006.3,11111222 
TABS,ioos:station:wmo:42045:1,2003-04-06T05:40:00Z,26.2168,-96.4998,1006.81,11111222 
TABS,ioos:station:wmo:42045:1,2003-04-06T06:10:00Z,26.2168,-96.4998,1006.36,11111222 
TABS,ioos:station:wmo:42045:1,2003-04-06T06:40:00Z,26.2168,-96.4998,1006.04,11111222 
TABS,ioos:station:wmo:42045:1,2003-04-06T07:10:00Z,26.2168,-96.4998,1006.68,11111222 
TABS,ioos:station:wmo:42045:1,2003-04-06T07:40:00Z,26.2168,-96.4998,1007.12,11111222 
TABS,ioos:station:wmo:42045:1,2003-04-06T08:10:00Z,26.2168,-96.4998,1006.55,11111222 
TABS,ioos:station:wmo:42045:1,2003-04-06T08:40:00Z,26.2168,-96.4998,1006.43,11111222 
TABS,ioos:station:wmo:42045:1,2003-04-06T09:10:00Z,26.2168,-96.4998,1006.36,11111222 
TABS,ioos:station:wmo:42045:1,2003-04-06T09:40:00Z,26.2168,-96.4998,1006.68,11111222 
TABS,ioos:station:wmo:42045:1,2003-04-06T10:10:00Z,26.2168,-96.4998,1006.81,11111222 
TABS,ioos:station:wmo:42045:1,2003-04-06T10:40:00Z,26.2168,-96.4998,1006.74,11111222 
TABS,ioos:station:wmo:42045:1,2003-04-06T11:10:00Z,26.2168,-96.4998,1006.3,11111222 
TABS,ioos:station:wmo:42045:1,2003-04-06T11:40:00Z,26.2168,-96.4998,1006.3,11111222 
TABS,ioos:station:wmo:42045:1,2003-04-06T12:10:00Z,26.2168,-96.4998,1006.49,11111222 
TABS,ioos:station:wmo:42045:1,2003-04-06T12:40:00Z,26.2168,-96.4998,1006.62,11111222 
TABS,ioos:station:wmo:42045:1,2003-04-06T13:10:00Z,26.2168,-96.4998,1008.39,11111222 
TABS,ioos:station:wmo:42045:1,2003-04-06T13:40:00Z,26.2168,-96.4998,1012.33,11111222 
TABS,ioos:station:wmo:42045:1,2003-04-06T14:10:00Z,26.2168,-96.4998,1012.08,11111222 
TABS,ioos:station:wmo:42045:1,2003-04-06T14:40:00Z,26.2168,-96.4998,1012.96,11111222 
TABS,ioos:station:wmo:42045:1,2003-04-06T15:10:00Z,26.2168,-96.4998,1020.2,11111222 
TABS,ioos:station:wmo:42045:1,2003-04-06T15:40:00Z,26.2168,-96.4998,1019.12,11111222 
TABS,ioos:station:wmo:42045:1,2003-04-06T16:10:00Z,26.2168,-96.4998,1017.79,11111222 
TABS,ioos:station:wmo:42045:1,2003-04-06T16:40:00Z,26.2168,-96.4998,1020.2,11111222 
TABS,ioos:station:wmo:42045:1,2003-04-06T17:10:00Z,26.2168,-96.4998,1014.93,11111222 
TABS,ioos:station:wmo:42045:1,2003-04-06T17:40:00Z,26.2168,-96.4998,1013.66,11111222 
TABS,ioos:station:wmo:42045:1,2003-04-06T18:10:00Z,26.2168,-96.4998,1018.49,11111222 
TABS,ioos:station:wmo:42045:1,2003-04-06T18:40:00Z,26.2168,-96.4998,1014.11,11111222 
TABS,ioos:station:wmo:42045:1,2003-04-06T19:10:00Z,26.2168,-96.4998,1011.06,11111222 
TABS,ioos:station:wmo:42045:1,2003-04-06T19:40:00Z,26.2168,-96.4998,1014.04,11111222 
TABS,ioos:station:wmo:42045:1,2003-04-06T20:10:00Z,26.2168,-96.4998,1014.04,11111222 
TABS,ioos:station:wmo:42045:1,2003-04-06T20:40:00Z,26.2168,-96.4998,1016.9,11111222 
TABS,ioos:station:wmo:42045:1,2003-04-06T21:10:00Z,26.2168,-96.4998,1015.25,11111222 
TABS,ioos:station:wmo:42045:1,2003-04-06T21:40:00Z,26.2168,-96.4998,1016.39,11111222 
TABS,ioos:station:wmo:42045:1,2003-04-06T22:10:00Z,26.2168,-96.4998,1012.14,11111222 
TABS,ioos:station:wmo:42045:1,2003-04-06T22:40:00Z,26.2168,-96.4998,1007.31,11111222 